Location: Bathurst
(33.4193°S, 149.5775°E)
Time: 09:40:27
(UTC+10:00)

Vanguard 1 Rocket - Pass Details

Date: 20 June 2021
Orbit: 650 x 4226 km, 34.3° (Epoch: 02 August)

Event Time Altitude Azimuth Distance (km) Brightness Sun altitude
Rises 11:19:08 0° 272° (W) 7,401 12.0 32.2°
Reaches altitude 10° 11:24:53 10° 271° (W) 5,853 11.5 32.4°
Maximum altitude 11:40:38 85° 181° (S) 1,738 9.3 32.9°
Drops below altitude 10° 11:48:17 10° 91° (E) 3,048 10.2 33.0°
Sets 11:50:22 0° 90° (E) 3,757 10.6 33.1°
